Temp_Advection
nan nan nan nan nan nan nan nan nan nan nan nan nan nan nan nan nan nan nan nan nan nan nan nan nan nan nan nan nan nan nan nan nan nan nan nan nan nan nan nan nan nan nan nan
nan -1 -2 -1 -0 -0 0 0 -1 -1 -1 0 -0 0 0 -0 -1 -1 -0 0 -1 -0 -0 0 -0 0 0 0 -0 -0 -0 -0 -0 -0 -0 0 -0 -0 -0 -0 -0 -0 -0 nan
nan -2 -1 -0 0 -0 0 -0 -1 -1 -0 0 0 0 -0 -1 -1 0 0 1 -0 -1 -0 0 0 0 0 0 0 -0 0 0 -0 -0 -0 -0 -0 -0 -0 -0 -0 -0 -0 nan
nan -1 -0 0 -0 -0 -0 -1 0 -0 1 0 0 0 -1 -0 0 1 1 0 -1 -1 -0 -0 0 0 0 0 0 0 -0 -0 0 0 0 0 -0 -0 -0 -0 -0 -0 -0 nan
nan -1 -0 -0 -1 0 -1 0 1 1 -0 0 0 -0 -1 0 1 0 0 1 -1 -0 -0 -0 0 0 0 0 0 0 -0 -0 -0 -0 -0 -0 -0 -0 -0 -0 -0 -0 -0 nan
nan -0 0 0 1 -0 -1 1 -0 0 -0 -0 -0 -0 -0 0 -0 -1 -0 1 -0 -0 0 0 0 0 0 0 0 0 0 -0 -0 -0 -0 0 -0 -0 -0 -0 -0 -0 -0 nan
nan -1 0 -0 -0 -1 1 0 0 -0 -0 -0 -1 -0 -0 0 0 -1 -0 0 0 0 0 0 0 0 0 0 1 0 0 0 0 0 0 0 0 -0 -0 -0 -0 -0 -0 nan
nan -0 -0 -1 -0 -0 1 1 -0 0 -1 0 0 -0 -0 0 0 1 -0 -0 -0 0 0 0 0 0 0 0 0 0 0 0 0 0 0 0 0 0 0 -0 -0 -0 -0 nan
nan -0 -0 -0 -1 0 0 -0 -1 -1 -0 -0 0 0 -0 0 -0 0 1 0 0 -0 -0 -0 -0 0 0 0 0 0 0 0 0 0 0 0 0 0 0 -0 -0 -0 -0 nan
nan -0 0 0 -0 -0 -0 -0 -0 -1 0 -0 0 0 0 0 0 0 0 -0 -0 -0 -0 -0 -0 -0 0 0 0 0 0 0 0 0 0 0 0 0 -0 -0 -0 -0 -0 nan
nan -0 -0 0 -0 -0 -0 -0 -1 -1 0 -0 0 0 -0 -0 -0 -0 -0 -1 -1 -0 -0 -0 -0 0 0 0 0 0 0 0 0 0 0 0 0 0 -0 -0 -0 -0 -0 nan
nan -0 -0 -0 -0 -0 -0 -0 -2 -0 -0 -0 -0 0 0 0 0 -0 -0 -1 -1 -0 -0 -0 -0 0 0 0 0 0 1 0 0 0 0 0 0 0 -0 -0 -0 -0 -0 nan
nan -0 -0 0 -0 0 -0 -0 -0 -0 -0 -0 0 0 0 -0 1 0 -0 -1 -0 -0 -0 -0 0 0 1 1 0 1 0 0 0 0 0 0 0 0 -0 -0 -0 -0 -0 nan
nan -0 -0 -0 -0 -1 -0 -0 -0 -0 -0 0 -0 -0 0 -0 0 1 0 -0 -0 -0 -0 -0 0 1 1 1 1 1 1 0 0 0 0 0 0 0 -0 -0 -0 -0 -0 nan
nan -0 -1 -0 -1 -1 -1 -0 -0 -0 -0 0 0 -0 0 -0 -1 0 1 0 -0 -0 0 0 0 0 0 0 0 0 0 0 0 0 0 0 0 -0 -0 -0 -0 -0 -0 nan
nan -0 -1 1 0 -0 -0 -0 0 -0 -0 -0 -0 0 0 1 -0 -1 0 0 -0 -0 0 0 0 0 0 0 0 0 0 0 0 0 0 0 0 -0 -0 -0 -0 -0 -0 nan
nan -0 -0 0 0 -0 0 0 -0 -0 -0 0 -0 -0 -0 0 0 0 0 0 0 0 1 1 1 1 1 1 1 1 0 0 0 0 0 0 0 -0 -0 -0 -0 -0 -0 nan
nan -0 -0 -0 -0 0 -0 -0 -0 0 0 -0 -0 -0 -0 0 -0 0 1 0 0 1 1 1 1 1 1 1 1 0 0 0 0 0 0 -0 -0 -0 -0 -0 -0 -0 -0 nan
nan -0 -0 0 -0 -0 0 -0 -0 0 0 0 0 0 -1 0 -0 -1 1 1 0 1 1 1 1 1 1 1 0 0 0 0 0 0 0 -0 -0 -0 -0 -0 -0 -0 -0 nan
nan -0 -0 -0 -0 -0 0 -0 -0 -0 0 -1 -0 -0 -0 0 -0 0 1 1 0 0 0 0 0 0 0 0 0 0 0 0 0 0 -0 -0 -0 -0 -0 -0 -0 -0 -0 nan
nan 0 0 -0 -0 -0 0 0 -0 -0 0 -0 -0 -1 -1 -0 0 -0 0 1 0 0 0 0 0 0 0 0 0 0 0 0 0 0 -0 -0 -0 -0 -0 -0 -0 -0 -0 nan
nan -0 -0 -0 -0 -0 0 0 0 0 0 0 -0 -1 -2 -1 -0 0 0 0 0 0 -0 0 0 0 0 0 0 0 0 0 0 -0 -0 -0 -0 -0 -0 -0 -0 -1 -0 nan
nan -0 -0 -0 -0 -0 0 -0 0 0 0 -0 -0 0 -1 -1 -0 0 0 0 0 0 -0 0 0 0 0 0 0 0 0 0 -0 -0 -0 -0 -0 -0 -0 -0 -0 -1 -0 nan
nan 0 -0 -0 0 0 0 0 0 0 0 0 0 -0 -0 -1 -0 -0 0 0 0 -0 0 0 0 0 0 0 0 0 0 0 -0 -0 -0 -0 -0 -0 -0 -0 -0 -0 -0 nan
nan 0 0 -0 0 0 0 0 0 0 0 0 0 0 0 -1 -0 -0 -0 0 0 0 0 0 0 0 0 0 0 0 0 -0 -0 -0 -0 -0 -0 -0 -0 -0 -0 0 -0 nan
nan nan nan nan nan nan nan nan nan nan nan nan nan nan nan nan nan nan nan nan nan nan nan nan nan nan nan nan nan nan nan nan nan nan nan nan nan nan nan nan nan nan nan nan
Wind_Speed
16 8 18 21 21 18 17 19 17 15 17 18 17 18 14 18 20 15 14 10 13 13 8 11 11 14 17 15 16 16 17 16 17 18 15 13 12 12 12 11 10 9 9 10
14 19 26 17 18 18 21 20 18 17 17 21 18 17 13 11 17 21 15 15 20 17 13 15 15 16 17 20 20 21 21 21 20 16 14 13 13 15 13 11 9 9 10 13
19 24 17 19 18 20 21 22 18 16 19 7 7 9 11 13 21 19 24 21 26 21 19 19 19 19 20 19 18 18 17 16 16 15 16 17 15 13 10 8 8 9 12 17
16 22 20 19 22 19 20 21 19 17 17 9 9 4 17 21 14 7 12 19 28 26 21 21 21 19 20 20 20 20 20 19 17 15 14 12 12 11 9 7 7 9 13 19
10 15 21 24 23 21 22 12 16 22 9 4 12 5 7 14 17 8 10 21 29 28 27 24 22 20 21 21 21 20 20 20 19 17 14 12 11 9 7 6 7 10 15 19
16 17 16 15 21 20 20 12 15 14 6 7 11 10 6 10 14 13 11 26 30 29 27 24 22 22 23 21 20 19 18 19 17 15 14 11 8 7 6 5 5 7 12 16
7 19 12 3 5 19 19 12 7 6 7 5 15 9 1 7 9 13 14 26 31 29 28 26 25 23 23 21 20 19 18 18 16 14 12 9 7 4 2 2 5 8 13 17
10 9 16 11 8 10 18 15 3 5 4 5 11 6 3 9 10 25 27 31 32 30 27 26 24 22 22 21 19 18 17 16 15 12 9 7 4 1 2 5 8 11 15 18
5 9 10 12 13 11 3 11 18 6 7 4 4 4 6 9 7 11 21 29 31 31 29 26 23 21 21 20 18 17 16 15 13 10 7 5 3 3 4 7 10 13 16 19
2 5 5 11 10 16 8 11 11 7 5 7 6 9 6 9 8 8 14 24 29 30 29 27 25 22 20 19 19 17 15 13 11 9 7 5 4 4 6 8 11 14 17 18
7 6 3 2 11 15 8 5 8 5 2 6 5 1 9 9 11 10 11 27 31 34 32 30 26 22 21 21 19 17 15 13 12 10 9 6 5 6 7 10 13 16 18 18
8 4 3 8 3 11 5 9 21 2 2 2 5 2 8 9 7 10 14 29 34 33 31 30 27 26 24 21 20 17 15 14 12 11 9 7 7 7 9 12 14 17 18 17
10 5 1 5 8 5 8 6 3 5 2 4 3 4 7 8 8 7 14 26 31 32 29 28 27 27 23 20 19 17 16 15 12 11 9 8 8 8 10 13 16 17 17 18
8 4 7 4 6 10 6 5 4 5 2 2 3 6 7 8 9 8 14 21 29 31 29 28 27 25 21 20 18 17 16 15 13 11 10 9 7 9 12 15 17 18 19 20
3 4 9 5 18 14 11 9 7 5 4 2 2 8 9 10 10 11 17 24 29 28 29 29 27 23 20 19 17 16 16 14 12 11 10 7 8 10 14 16 18 18 19 21
8 6 11 9 6 11 10 12 12 9 5 6 6 5 9 12 21 18 18 21 27 29 29 26 24 20 21 19 18 16 15 13 11 10 8 7 8 11 15 18 18 18 20 24
6 3 5 4 2 6 2 8 10 8 8 7 7 7 6 6 7 10 14 19 19 22 24 22 21 19 20 18 16 15 14 11 10 8 7 7 9 12 16 17 17 19 23 27
8 3 2 3 2 1 2 3 4 11 8 9 8 5 7 11 18 19 13 16 17 20 19 17 17 18 17 17 15 13 11 9 8 6 6 8 11 14 14 15 18 21 26 29
11 4 1 2 3 5 4 2 0 5 6 6 6 8 16 25 19 14 18 18 17 15 14 15 16 18 17 15 13 10 9 7 6 5 6 9 11 12 14 16 20 24 28 30
2 6 3 4 1 2 2 1 6 4 2 6 4 10 15 13 4 4 13 17 18 17 16 16 14 12 11 10 9 8 7 6 5 5 7 9 11 12 14 18 23 27 29 31
5 4 5 2 2 5 3 4 2 4 3 5 6 22 19 5 4 25 19 17 15 14 12 10 9 8 6 6 7 7 5 4 3 5 8 10 11 13 17 21 24 28 30 32
6 7 4 3 2 6 9 4 3 3 3 4 17 21 25 26 26 24 19 17 14 13 11 9 7 6 5 6 7 6 5 4 5 7 9 9 11 15 19 23 27 29 31 34
6 5 5 7 5 2 8 4 9 7 10 13 19 22 24 25 21 19 18 14 11 9 7 6 4 5 6 7 6 6 4 4 5 8 9 10 13 17 20 25 29 30 32 34
4 10 2 5 3 5 8 7 9 11 16 18 17 20 21 23 19 17 13 10 7 5 4 3 3 5 6 5 6 5 4 5 7 8 10 12 16 18 23 27 29 31 32 33
2 7 6 2 3 5 5 8 16 21 20 20 20 19 19 20 17 15 12 8 4 2 2 3 4 5 5 4 5 3 5 6 8 9 12 14 17 22 27 28 29 30 28 25
5 6 5 4 14 7 10 22 22 24 25 24 24 21 17 13 14 10 8 5 3 2 2 4 6 7 6 5 4 4 5 7 9 11 14 16 21 26 27 30 33 31 30 27
Wind_Direction
229 211 223 220 218 235 261 247 230 237 215 232 233 226 223 236 253 227 212 198 150 153 158 135 138 136 131 126 125 124 122 124 136 147 157 158 146 133 126 118 102 78 53 33
235 229 228 229 235 228 236 249 257 232 228 218 224 229 227 231 237 234 225 193 152 150 152 144 137 136 139 135 132 133 137 144 150 156 146 140 130 119 109 94 80 58 34 19
218 237 234 240 236 240 228 241 243 233 237 234 221 240 237 226 234 216 232 192 162 156 157 151 150 144 144 140 141 145 148 152 155 152 138 129 119 109 102 89 65 40 23 13
236 248 239 231 232 235 239 230 247 250 234 198 190 243 221 224 223 194 182 168 153 158 160 157 151 145 140 134 135 134 129 124 120 124 122 120 119 119 100 74 39 23 12 10
224 228 234 230 237 223 245 219 241 245 262 192 188 222 259 189 207 176 193 172 156 160 162 159 157 153 146 144 144 144 143 142 143 143 140 133 126 111 97 71 35 13 2 358
243 249 240 239 228 247 255 213 285 236 222 208 205 204 248 171 173 175 181 153 157 160 160 160 160 158 153 150 147 145 145 139 140 140 139 138 131 118 102 71 35 4 345 343
226 249 238 121 242 231 218 183 236 232 195 212 194 187 266 88 124 171 165 153 157 162 163 164 164 164 158 155 152 151 151 145 148 149 147 144 135 126 99 6 345 340 337 337
220 238 210 176 200 226 206 190 224 183 190 139 152 201 216 144 124 141 155 155 160 165 168 172 166 166 163 159 160 160 160 159 160 161 159 155 152 180 303 330 334 333 335 333
241 221 159 181 214 201 182 198 237 280 176 106 173 107 64 108 94 136 145 152 163 169 173 171 169 172 169 168 171 172 173 173 174 175 176 181 208 259 303 320 328 331 332 329
191 296 170 200 220 200 207 167 207 225 195 145 187 176 161 150 152 154 153 162 165 171 172 171 171 177 175 176 180 182 183 186 189 194 202 218 242 281 302 318 326 330 329 329
168 239 314 199 189 185 197 199 228 244 180 126 132 110 147 140 155 172 164 167 169 175 172 172 172 179 183 188 187 190 194 197 201 208 221 236 260 283 302 318 325 327 329 330
168 275 235 259 195 197 195 206 213 250 41 50 113 122 97 106 113 152 178 170 172 174 171 173 174 181 193 193 193 197 200 206 211 220 232 245 262 285 306 318 325 329 329 329
168 208 252 331 173 145 214 227 283 298 326 173 83 159 116 107 108 111 151 160 166 169 168 172 180 188 197 195 197 202 207 216 218 225 236 249 268 292 307 320 327 328 328 327
157 218 242 273 139 140 185 211 270 228 344 9 77 125 124 124 124 120 141 155 162 167 171 175 184 196 197 199 202 207 213 222 223 228 238 255 278 299 316 325 326 327 328 328
258 257 271 285 139 152 164 190 239 267 233 59 172 132 178 168 151 153 156 156 157 167 176 181 184 191 195 200 204 211 219 225 222 227 241 261 287 311 322 325 327 327 328 331
212 294 309 73 56 156 163 181 197 223 236 261 289 312 129 88 126 135 159 166 169 177 178 182 185 192 198 205 210 214 222 224 221 228 245 270 301 319 328 330 328 330 333 333
173 269 323 45 60 62 360 195 194 206 213 213 219 238 126 109 106 134 157 170 171 173 175 179 185 192 197 209 218 219 222 218 219 231 253 286 307 325 334 330 331 334 335 333
180 195 294 331 73 121 199 10 223 203 207 214 245 91 108 113 85 75 122 129 127 147 157 171 178 184 195 207 212 216 215 213 217 238 272 300 319 330 332 331 334 334 333 331
181 174 316 117 269 310 138 27 45 179 236 213 199 156 111 109 96 55 102 129 130 139 152 164 180 191 196 203 209 209 206 210 222 255 295 315 321 333 331 332 334 335 330 329
131 116 41 349 215 241 87 27 325 49 314 330 240 131 137 131 131 169 133 137 140 145 155 164 175 183 191 194 195 195 201 211 238 290 311 316 333 333 333 334 334 332 328 330
161 129 182 231 314 315 127 140 316 113 243 332 45 127 133 88 138 145 149 136 136 138 141 145 150 161 168 172 176 191 207 227 270 298 311 334 335 331 332 331 330 331 333 331
166 169 176 127 188 270 142 83 159 171 101 87 107 126 114 117 122 136 139 133 131 128 127 131 144 154 167 174 192 206 217 245 283 313 333 330 328 331 329 330 332 333 332 331
175 200 167 187 202 204 151 99 128 137 133 119 117 130 132 132 133 134 131 130 125 122 125 140 162 173 181 190 206 215 232 275 314 329 324 326 330 329 330 332 333 331 332 329
201 207 231 138 180 175 164 144 150 149 137 133 134 134 138 132 133 129 129 127 124 120 130 163 193 198 202 202 207 229 276 307 318 317 321 326 327 330 331 332 333 332 330 327
180 141 167 76 81 77 169 181 153 141 142 138 133 136 136 134 131 134 132 133 134 150 186 192 208 218 228 211 219 256 295 309 309 315 322 326 327 328 330 331 331 330 328 324
195 183 162 218 185 177 181 170 165 152 148 149 145 135 135 138 137 142 138 138 153 186 214 197 195 212 229 230 250 287 300 303 311 319 324 326 327 329 328 330 328 332 330 327
Height
1475 1479 1469 1466 1467 1468 1466 1461 1460 1452 1451 1452 1450 1450 1449 1450 1451 1451 1453 1455 1457 1461 1464 1468 1470 1470 1470 1472 1472 1473 1475 1478 1480 1482 1483 1485 1486 1489 1490 1491 1493 1493 1493 1492
1473 1467 1453 1463 1466 1467 1465 1465 1461 1451 1443 1446 1444 1444 1442 1444 1445 1445 1448 1450 1454 1460 1465 1468 1470 1470 1470 1471 1471 1474 1476 1478 1480 1481 1482 1484 1487 1489 1491 1492 1493 1493 1492 1491
1463 1443 1460 1463 1463 1463 1458 1461 1460 1452 1443 1439 1440 1446 1442 1436 1437 1438 1442 1445 1449 1457 1462 1466 1468 1469 1469 1469 1471 1474 1476 1477 1479 1481 1482 1485 1487 1490 1492 1492 1493 1492 1491 1490
1458 1451 1454 1455 1457 1457 1456 1448 1455 1456 1452 1454 1437 1460 1435 1427 1431 1432 1436 1441 1446 1454 1461 1465 1466 1467 1469 1470 1472 1475 1477 1478 1480 1482 1483 1485 1488 1490 1491 1492 1491 1491 1490 1488
1449 1445 1447 1447 1445 1449 1446 1451 1448 1451 1446 1446 1437 1453 1426 1413 1428 1432 1433 1438 1443 1451 1458 1462 1464 1466 1469 1471 1473 1475 1477 1478 1481 1483 1485 1486 1488 1489 1490 1490 1489 1487 1486 1485
1442 1444 1442 1442 1442 1448 1446 1450 1450 1446 1454 1451 1438 1437 1426 1419 1417 1425 1430 1435 1441 1450 1456 1460 1463 1466 1468 1471 1473 1476 1478 1479 1481 1482 1484 1486 1487 1487 1488 1488 1487 1486 1485 1483
1448 1439 1439 1445 1448 1445 1446 1451 1458 1448 1447 1435 1418 1427 1416 1403 1406 1414 1422 1431 1440 1448 1453 1457 1460 1465 1468 1470 1473 1476 1478 1478 1480 1482 1483 1485 1485 1485 1486 1486 1486 1485 1484 1482
1438 1433 1432 1436 1443 1433 1438 1442 1443 1438 1443 1419 1407 1426 1415 1401 1405 1410 1419 1427 1438 1446 1452 1456 1459 1463 1466 1470 1473 1475 1476 1478 1479 1480 1482 1483 1483 1484 1485 1485 1484 1483 1482 1479
1430 1427 1418 1422 1433 1432 1438 1445 1436 1432 1395 1418 1416 1405 1405 1404 1409 1413 1419 1427 1436 1443 1449 1454 1458 1462 1466 1469 1472 1473 1475 1476 1478 1479 1480 1481 1482 1483 1483 1482 1482 1481 1479 1477
1430 1424 1412 1417 1426 1426 1428 1423 1438 1424 1408 1417 1416 1413 1414 1411 1413 1413 1419 1426 1433 1441 1447 1453 1457 1461 1464 1468 1470 1472 1474 1475 1476 1478 1479 1480 1480 1481 1481 1480 1479 1478 1476 1473
1433 1439 1419 1415 1413 1411 1415 1419 1419 1404 1389 1400 1421 1415 1395 1401 1406 1412 1415 1422 1429 1437 1443 1449 1455 1459 1462 1465 1468 1469 1471 1473 1474 1476 1477 1478 1478 1479 1478 1478 1477 1475 1473 1470
1429 1430 1417 1406 1397 1405 1406 1403 1400 1393 1400 1395 1404 1419 1395 1399 1403 1406 1412 1417 1425 1434 1440 1447 1452 1455 1459 1462 1465 1467 1469 1470 1472 1473 1475 1475 1476 1476 1476 1475 1473 1472 1470 1468
1423 1423 1411 1409 1404 1401 1404 1397 1390 1391 1389 1403 1410 1420 1398 1402 1406 1407 1411 1416 1424 1432 1439 1445 1449 1453 1456 1460 1462 1464 1466 1468 1470 1471 1472 1473 1474 1474 1473 1472 1471 1469 1467 1465
1412 1406 1406 1391 1381 1386 1397 1394 1391 1396 1403 1399 1402 1410 1405 1407 1407 1409 1412 1417 1424 1430 1436 1443 1447 1450 1454 1457 1459 1462 1463 1465 1467 1469 1469 1470 1471 1471 1471 1469 1468 1466 1464 1461
1416 1399 1390 1372 1370 1379 1386 1391 1394 1397 1395 1403 1397 1403 1403 1402 1405 1408 1412 1417 1423 1429 1434 1439 1444 1448 1452 1455 1457 1459 1461 1463 1465 1466 1467 1468 1469 1469 1468 1467 1465 1463 1460 1457
1408 1400 1386 1379 1376 1380 1389 1390 1392 1395 1397 1399 1399 1402 1395 1398 1402 1408 1413 1417 1420 1426 1431 1438 1443 1447 1450 1452 1454 1456 1458 1460 1462 1464 1465 1466 1467 1466 1465 1463 1461 1459 1456 1454
1404 1400 1389 1393 1380 1383 1394 1388 1391 1395 1397 1398 1407 1399 1398 1402 1404 1408 1412 1416 1421 1427 1431 1436 1441 1445 1448 1450 1452 1454 1456 1458 1460 1462 1463 1464 1464 1463 1461 1460 1458 1456 1453 1450
1397 1400 1396 1398 1388 1411 1386 1382 1381 1388 1390 1392 1394 1397 1398 1402 1408 1411 1413 1416 1421 1426 1431 1436 1440 1444 1447 1448 1450 1452 1454 1456 1458 1460 1461 1461 1461 1460 1458 1457 1455 1452 1449 1446
1392 1397 1402 1406 1404 1391 1383 1385 1384 1388 1390 1386 1390 1394 1400 1404 1408 1416 1416 1418 1423 1427 1431 1435 1439 1442 1444 1446 1448 1450 1453 1455 1457 1458 1459 1459 1458 1456 1455 1454 1451 1449 1445 1441
1392 1395 1405 1408 1407 1402 1390 1386 1384 1381 1401 1389 1386 1392 1399 1403 1417 1420 1421 1422 1425 1429 1432 1435 1438 1440 1443 1444 1447 1450 1452 1454 1455 1457 1457 1456 1455 1454 1452 1450 1448 1445 1441 1436
1400 1403 1409 1410 1409 1401 1387 1387 1386 1398 1403 1391 1388 1390 1399 1406 1408 1415 1421 1425 1428 1430 1433 1436 1438 1440 1442 1444 1447 1448 1451 1453 1454 1454 1454 1453 1452 1451 1449 1448 1445 1440 1435 1431
1394 1399 1403 1411 1412 1411 1386 1390 1393 1395 1393 1393 1394 1397 1402 1408 1413 1417 1423 1426 1429 1431 1433 1436 1438 1440 1443 1444 1446 1448 1450 1451 1452 1452 1451 1450 1450 1448 1447 1444 1440 1436 1432 1426
1390 1386 1391 1395 1392 1385 1385 1387 1389 1392 1393 1396 1397 1401 1405 1411 1417 1421 1424 1427 1430 1432 1434 1436 1438 1440 1442 1444 1445 1447 1448 1449 1449 1449 1448 1448 1447 1446 1444 1440 1436 1432 1428 1423
1378 1378 1382 1384 1386 1385 1386 1387 1389 1392 1394 1397 1401 1405 1409 1413 1418 1422 1425 1428 1430 1432 1434 1436 1437 1438 1440 1442 1444 1445 1446 1447 1447 1447 1446 1446 1445 1443 1440 1437 1433 1428 1424 1418
1373 1376 1378 1385 1385 1386 1387 1388 1390 1391 1394 1399 1404 1408 1411 1414 1419 1422 1425 1428 1430 1432 1433 1435 1436 1437 1439 1441 1442 1444 1444 1445 1445 1445 1444 1443 1441 1439 1435 1432 1429 1424 1421 1417
1369 1370 1375 1376 1371 1374 1377 1384 1387 1390 1395 1400 1403 1409 1414 1416 1419 1422 1425 1428 1429 1431 1432 1433 1435 1436 1438 1440 1441 1442 1443 1443 1443 1442 1442 1440 1437 1434 1431 1426 1421 1420 1416 1412